Regional Weather Roundup
Issued by NWS Little Rock, AR

Home | Current Version | Previous Version | Graphics & Text | Print | Product List | Glossary On
Versions: 1 2 3 4 5 6 7 8 9 10 11 12 13 14 15 16 17 18 19 20 21 22 23 24 25 26 27 28 29 30 31 32 33 34 35 36 37 38 39 40 41 42 43 44 45 46 47 48 49 50
000
ASUS44 KLZK 290805
RWRLZK

WEATHER ROUNDUP FOR ARKANSAS
NATIONAL WEATHER SERVICE LITTLE ROCK AR
200 AM CST THU JAN 29 2015

NOTE: "FAIR" INDICATES FEW OR NO CLOUDS BELOW 12,000 FEET WITH NO
SIGNIFICANT WEATHER AND/OR OBSTRUCTIONS TO VISIBILITY.

ARZ001-003-010-029-290900-
NORTHWEST ARKANSAS

CITY           SKY/WX    TMP DP  RH WIND       PRES   REMARKS
FAYETTEVILLE   CLOUDY    60  42  51 SW12      29.98R
FORT SMITH     PTCLDY    45  41  86 CALM      29.97F
HARRISON       CLOUDY    64  42  44 SW13G28   29.91S
BENTONVILLE    CLOUDY    57  39  51 W7        29.98R
ROGERS         CLOUDY    58  41  53 W12       29.97R
SILOAM SPGS    CLOUDY    55  37  50 W7        30.00R
HIGHFILL       CLOUDY    58  41  53 W13       29.97R
$$

ARZ004-005-016-290900-
NORTH CENTRAL ARKANSAS

CITY           SKY/WX    TMP DP  RH WIND       PRES   REMARKS
BATESVILLE     CLOUDY    55  39  54 S10G21    29.94S
FLIPPIN        MOCLDY    59  41  51 SW10      29.90S
MTN HOME       MOCLDY    58  43  57 SW6       29.89S
$$

ARZ040-041-290900-
WEST CENTRAL ARKANSAS

CITY           SKY/WX    TMP DP  RH WIND       PRES   REMARKS
MENA           PTCLDY    63  45  51 SW7       30.04R
MOUNT IDA      PTCLDY    64  43  46 SW8       30.00R
$$

ARZ009-017-025-026-028-290900-
NORTHEAST ARKANSAS

CITY           SKY/WX    TMP DP  RH WIND       PRES   REMARKS
CORNING        FAIR      52  41  66 SW22G29   29.92F
JONESBORO      CLOUDY    54  41  61 SW21G33   29.96F
NEWPORT        CLOUDY    54  43  66 S10       29.98F
WALNUT RIDGE   CLOUDY    48  37  66 S17       29.93F
BLYTHEVILLE    CLOUDY    56  39  53 S21G26    29.98F
$$

ARZ022-023-033-042-044-290900-
CENTRAL ARKANSAS

CITY           SKY/WX    TMP DP  RH WIND       PRES   REMARKS
LITTLE ROCK    CLOUDY    59  40  49 SW18G28   30.01S
N LITTLE ROCK    N/A     58  45  61 SW12G20   30.01S
JACKSONVILLE   CLOUDY    59  42  53 SW15G21   30.01S
SEARCY         CLOUDY    54  42  64 S6        30.02S
HOT SPRINGS    MOCLDY    61  43  51 SW9       30.05R
RUSSELLVILLE   MOCLDY    44  39  82 S6        29.97S
CLINTON        FAIR      39  37  93 CALM      30.00S
$$

ARZ036-290900-
EAST ARKANSAS

CITY           SKY/WX    TMP DP  RH WIND       PRES   REMARKS
WEST MEMPHIS   CLOUDY    54  40  59 S17G25    30.02F
$$

ARZ050-053-066-070-073-290900-
SOUTHWEST ARKANSAS

CITY           SKY/WX    TMP DP  RH WIND       PRES   REMARKS
ARKADELPHIA    FAIR      46  45  97 CALM      30.07S
CAMDEN         CLEAR     55  39  54 MISG      30.09R
TEXARKANA      PTCLDY    57  45  64 S16       30.05S
EL DORADO      CLEAR     56  44  64 S10       30.10R
DE QUEEN       MOCLDY    46  43  89 CALM      30.04R
$$

ARZ056-057-069-290900-
SOUTHEAST ARKANSAS

CITY           SKY/WX    TMP DP  RH WIND       PRES   REMARKS
PINE BLUFF     PTCLDY    57  41  55 SW14G22   30.06S
STUTTGART      MOCLDY    57  43  58 S17       30.04S
MONTICELLO     PTCLDY    58  39  49 S12G20    30.09S

$$





USA.gov is the U.S. government's official web portal to all federal, state and local government web resources and services.